Orbital Elements at Epoch 2459200.5 (2020-Dec-17.0) TDB
Reference: JPL 20 (heliocentric ecliptic J2000)
Element | Value | Uncertainty (1-sigma) | Units |
e | .153046216542364 | 4.9732e-08 | |
a | 3.109612134803494 | 3.0964e-08 | au |
q | 2.633697762657595 | 1.5483e-07 | au |
i | 27.49772379782671 | 5.6719e-06 | deg |
node | 213.5819109774089 | 9.4301e-06 | deg |
peri | 188.517160269929 | 1.9675e-05 | deg |
M | 237.4697192130864 | 2.1894e-05 | deg |
tp | 2459882.208467538070 (2022-Oct-29.70846754) | 0.00012942 | TDB |
period | 2002.893054170785 5.48 | 2.9916e-05 8.191e-08 | d yr |
n | .179740001219907 | 2.6846e-09 | deg/d |
Q | 3.585526506949392 | 3.5703e-08 | au |
|
| | Orbit Determination Parameters
Additional Information
|